Simultaneous Nadir Overpasses (SNOs) Predictions

Prediction of SNOs between AURA and NPP Satellite Orbit:

Table of predicted SNOs for the next 14.0 days since TLE Epoch: 10/11/2013
Index Date (AURA) Time (AURA) Lat,Lon (AURA) SZA (AURA ) Date (NPP) Time (NPP) Lat,Lon (NPP) SZA (NPP ) Distance(km) Time Diff (sec)
1 10/12/2013 18:19:24 -78.80, -22.35 79.76 10/12/2013 18:18:25 -78.80, -22.37 79.71 0.33 59
2 10/12/2013 19:08:42 79.11, 147.12 99.86 10/12/2013 19:09:01 79.10, 147.00 99.87 2.81 19
3 10/15/2013 10:36:00 -78.88, 93.91 78.90 10/15/2013 10:35:19 -78.87, 93.85 78.86 1.46 41
4 10/15/2013 11:25:17 79.23, -96.34 100.66 10/15/2013 11:25:53 79.23, -96.26 100.62 1.82 36
5 10/18/2013 02:52:44 -78.90,-150.15 78.00 10/18/2013 02:52:15 -78.90,-150.19 77.97 0.83 29
6 10/18/2013 03:42:00 79.29, 19.86 101.52 10/18/2013 03:42:48 79.29, 19.95 101.46 1.89 48
7 10/20/2013 19:09:32 -78.99, -33.84 77.19 10/20/2013 19:09:09 -78.99, -33.77 77.18 1.76 23
8 10/20/2013 19:58:52 79.22, 135.20 102.53 10/20/2013 19:59:47 79.21, 135.09 102.52 2.62 55
9 10/23/2013 11:26:29 -78.94, 81.66 76.22 10/23/2013 11:26:07 -78.94, 81.65 76.20 0.12 22




NCC Satellite Simultaneous Nadir Overpasses (SNOs) Prediction Service
